Regional Weather Roundup
Issued by NWS

Home | Current Version | Previous Version | Graphics & Text | Print | Product List | Glossary On
Versions: 1 2 3 4 5 6 7 8 9 10 11 12 13 14 15 16 17 18 19 20 21 22 23 24 25 26 27
000
ASUS45 KSLC 100610
RWRUT

UTAH REGIONAL WEATHER ROUNDUP
NATIONAL WEATHER SERVICE SALT LAKE CITY UT
1100 PM MST FRI DEC 09 2016

UTZ001>011-023>025-100700-

NORTHERN UTAH

CITY           SKY/WX    TMP DP  RH WIND       PRES   REMARKS
BRIGHAM CITY     N/A     33  31  91 CALM      30.08R
HILL AFB       MOCLDY    40  29  65 S13       30.05F WCI  33
LOGAN          CLOUDY    33  33 100 S5        30.06S FOG     WCI  29
OGDEN          CLOUDY    35  32  88 S5        30.06S WCI  31
SALT LAKE CITY CLOUDY    32  30  92 NE3       30.05F
WENDOVER       PTCLDY    25  19  80 SW5       30.08R WCI  19
HEBER CITY     MOCLDY    30  27  86 SW6       30.07F WCI  24

$$

UTZ011>015-024>027-100700-

CENTRAL/NORTHEAST UTAH

CITY           SKY/WX    TMP DP  RH WIND       PRES   REMARKS
PROVO AIRPORT  MOCLDY    38  30  73 E5        30.11F WCI  34
MOAB/CANYONLAN PTCLDY    24  11  57 CALM      30.24R
DELTA          CLOUDY    43  32  65 S20       30.11S
PRICE          PTCLDY    22  12  65 NE7       30.22R WCI  13
RICHFIELD      MOCLDY    30  25  80 NW3       30.16S
ROOSEVELT      CLOUDY    19  14  79 W5        30.21S WCI  13
VERNAL         CLOUDY    20  14  77 W5        30.19R WCI  13

$$

UTZ013>016-019>022-027-100700-

SOUTHERN UTAH

CITY           SKY/WX    TMP DP  RH WIND       PRES   REMARKS
BRYCE CANYON   PTCLDY    16  13  88 W7        30.26R WCI   6
CEDAR CITY     PTCLDY    36  29  75 SE7       30.20R WCI  30
MILFORD        PTCLDY    36  30  79 S21       30.15S WCI  25
ST GEORGE      MOCLDY    39  21  48 S3        30.26R
HANKSVILLE     PTCLDY    21   9  58 CALM      30.28R
KANAB          CLEAR     28  27  93 NE5       30.29R WCI  23
BLANDING       MOCLDY    28  20  72 N7        30.32F WCI  21

$$

REGIONAL REPORTS     COLORADO/ARIZONA

CITY           SKY/WX    TMP DP  RH WIND       PRES   REMARKS
CRAIG, CO      CLOUDY    29  24  82 SE3       30.13F
GRAND JUNCTION CLOUDY    23  18  81 CALM      30.25R
RIFLE, CO      CLOUDY    25  20  81 S3        30.25R
MONTROSE, CO   CLOUDY    24  20  84 SE8       30.25S WCI  15
CORTEZ, CO     CLOUDY    24  22  91 NE5       30.27S WCI  18
COLORADO CITY    N/A     27  25  93 E3        30.28R
PAGE, AZ       PTCLDY    39  15  37 SW3       30.24R
GRAND CANYON   PTCLDY    26  25  96 CALM      30.27R
KINGMAN, AZ    PTCLDY    38  29  70 S3        30.22R
FLAGSTAFF, AZ  PTCLDY    26  24  92 CALM      30.28F

$$

REGIONAL REPORTS    NEVADA/IDAHO/WYOMING

CITY           SKY/WX    TMP DP  RH WIND       PRES   REMARKS
LAS VEGAS, NV  PTCLDY    47  13  25 CALM      30.21F
ELY, NY        PTCLDY    23  19  85 S6        30.18S WCI  16
ELKO, NV       CLOUDY    34  28  79 E3        30.06R
POCATELLO, ID  LGT RAIN  38  32  79 S15       30.00S WCI  29
BURLEY, ID     LGT RAIN  39  34  82 SW8       29.97F WCI  33
FORT BRIDGER,  CLEAR     32  25  74 W14       30.04F WCI  22
EVANSTON, WY   CLOUDY    33  22  63 SW14      30.04F WCI  23
ROCK SPRINGS,  CLOUDY    34  25  69 SW14      30.05S WCI  25
KEMMERER, WY     N/A     30  27  86 W10       30.03F WCI  21

$$




USA.gov is the U.S. government's official web portal to all federal, state and local government web resources and services.